Location: Franzen
(48.6167°N, 15.3833°E)
Time: 09:28:48
(UTC+00:00)

Altair - Pass Details

Date: 08 August 2021
Orbit: 1501 x 1682 km, 47.2° (Epoch: 20 September)

Event Time Altitude Azimuth Distance (km) Brightness Sun altitude
Rises 20:34:06 0° 188° (S) 4,832 - -17.4°
Reaches altitude 10° 20:38:18 10° 173° (S) 3,818 - -17.8°
Maximum altitude 20:44:48 21° 130° (SE) 3,016 - -18.5°
Exits shadow 20:46:53 19° 113° (ESE) 3,093 8.6 -18.7°
Drops below altitude 10° 20:51:09 10° 87° (E) 3,732 9.2 -19.1°
Sets 20:55:09 0° 72° (ENE) 4,692 9.9 -19.4°
